Wind_Speed
5 5 5 5 5 4 4 4 4 4 4 4 3 3 3 3 3 2 2 2 2 2 2 2 1 1 1 1 2 2 2 2 3 3 3 3 3 3 4 5 5 6 6
6 5 5 5 5 4 4 4 4 4 4 4 3 3 4 4 3 3 3 3 3 3 3 3 3 2 2 3 3 3 3 4 4 4 4 4 5 5 5 6 6 7 7
7 6 6 6 5 5 5 5 5 5 5 5 4 4 4 4 4 4 4 5 4 4 4 4 4 4 4 4 4 4 4 5 6 6 6 6 6 6 6 7 8 8 9
7 7 7 7 7 6 6 7 6 6 6 6 6 5 5 5 5 6 6 6 6 5 5 6 6 6 6 6 6 6 6 7 7 8 8 8 8 8 8 8 9 9 10
8 8 8 8 8 8 7 7 7 7 7 7 6 6 6 7 7 7 8 8 8 7 8 8 8 8 8 8 8 9 9 9 9 9 10 10 10 10 10 10 10 11 12
9 10 10 10 10 9 9 8 8 8 8 8 8 8 8 8 8 9 9 10 10 9 10 10 11 11 11 11 11 11 11 11 11 11 12 12 12 12 12 13 12 13 13
10 10 10 10 11 11 10 10 10 10 10 11 11 11 11 11 11 10 10 11 11 11 12 12 12 13 13 13 14 14 14 14 13 13 14 13 13 14 14 14 14 14 15
11 12 12 12 12 12 12 12 11 11 12 12 12 13 13 13 12 12 12 12 12 13 13 14 14 14 14 15 16 16 16 16 16 16 16 16 16 16 16 16 17 17 18
12 12 12 13 13 13 13 13 13 13 13 13 13 13 14 15 15 14 14 14 15 16 16 16 16 16 16 16 16 17 17 17 18 18 18 18 18 18 18 18 19 19 19
13 13 13 13 14 14 14 14 14 14 14 15 14 14 14 15 15 15 15 15 16 17 17 17 17 17 17 17 17 17 18 18 19 19 20 20 21 20 20 20 20 20 20
15 15 15 15 15 15 16 16 16 16 16 16 16 16 16 16 16 16 16 17 17 18 18 18 18 18 17 17 18 19 19 20 20 21 21 22 22 22 22 22 22 21 21
16 16 16 16 16 17 17 17 17 17 17 17 17 17 17 17 18 17 17 18 18 18 19 19 19 19 19 19 20 20 21 21 21 22 22 22 23 23 23 23 23 22 22
16 17 17 17 17 18 18 18 18 18 18 18 18 18 18 18 19 19 20 19 19 20 20 20 20 20 21 21 22 22 22 23 23 23 24 24 24 24 25 25 24 24 24
17 18 18 18 18 18 18 19 19 19 19 19 19 19 19 20 20 21 21 21 21 21 21 21 22 22 22 23 23 24 24 25 26 26 25 25 25 25 25 25 25 25 25
18 19 19 19 20 20 20 21 20 21 20 20 20 21 21 20 20 22 23 23 23 23 23 23 24 24 25 25 25 26 26 26 27 27 27 27 26 26 26 26 26 26 27
21 21 21 21 21 22 22 22 22 22 23 22 22 23 23 22 23 23 24 24 24 24 25 25 25 25 26 26 27 28 27 27 28 28 28 28 28 27 27 27 27 27 27
22 22 22 22 22 23 23 24 24 23 23 24 25 25 24 24 24 24 25 25 24 25 26 26 27 27 27 28 28 28 27 27 28 28 28 28 27 27 28 28 28 28 28
22 23 23 23 23 23 23 24 25 25 25 26 26 26 26 26 25 25 26 26 26 26 26 27 28 28 28 29 29 29 29 29 30 29 29 28 28 28 29 28 28 28 28
23 23 24 24 25 25 25 25 26 26 27 27 26 26 27 27 27 27 27 27 27 28 28 28 29 29 30 30 30 29 29 29 29 29 29 29 28 29 29 30 30 29 30
24 24 24 25 25 25 26 26 27 27 27 27 27 28 28 28 28 28 29 29 29 29 30 30 30 30 30 30 30 29 29 29 30 29 29 29 30 30 30 30 30 31 31
24 25 25 26 26 26 26 26 27 28 28 28 29 29 29 30 30 30 31 31 31 31 31 31 32 31 31 31 31 31 31 31 30 29 30 30 30 30 30 30 31 31 31
26 26 26 26 27 28 28 28 28 29 29 29 30 30 30 31 31 32 32 33 33 32 32 33 33 33 32 32 31 31 31 31 30 30 30 31 30 30 30 30 30 31 31
27 27 28 28 28 28 29 29 30 30 30 30 31 31 31 31 32 32 32 33 33 33 34 33 33 32 33 32 32 32 32 32 31 31 31 30 30 30 31 31 31 31 32
28 28 27 27 27 28 29 29 30 31 32 32 32 32 32 32 33 32 33 34 33 33 32 32 32 31 32 33 32 32 32 32 32 31 31 30 31 32 32 32 31 31 32
28 28 28 28 29 29 30 30 31 32 32 32 32 32 33 33 33 33 33 32 32 32 32 32 32 32 31 32 32 32 31 31 32 32 31 31 31 31 31 31 31 31 31
28 28 28 29 29 30 30 31 32 32 32 32 32 32 33 33 33 32 31 31 32 32 32 32 32 31 31 31 31 32 32 32 32 32 31 32 32 32 31 31 31 31 31
Wind_Direction
341 347 355 2 4 1 359 2 5 7 5 0 345 332 324 325 337 350 358 3 4 350 344 6 11 16 2 335 327 329 326 315 315 322 319 317 313 309 306 305 304 304 304
324 324 326 330 340 346 342 339 339 341 340 344 337 327 320 320 322 317 311 315 320 320 322 324 327 320 317 312 302 306 308 307 304 304 305 307 305 305 309 310 307 305 307
307 307 306 309 311 314 313 314 319 319 317 316 319 313 306 303 309 310 305 303 301 298 296 297 301 302 303 302 295 292 294 298 296 294 297 299 299 299 300 300 301 302 305
297 298 298 296 294 297 301 303 304 308 310 309 309 301 291 288 291 296 300 301 297 290 288 292 294 294 294 292 289 286 287 288 289 289 288 288 290 294 294 292 293 296 300
291 292 293 290 287 287 292 294 295 298 304 303 301 296 291 288 289 295 298 296 292 286 286 290 289 288 286 285 284 284 283 284 285 283 284 284 286 286 287 288 291 293 297
287 286 288 287 282 281 285 291 292 291 294 294 294 293 291 290 289 291 293 292 291 288 287 288 287 286 283 282 282 281 279 279 281 280 281 283 283 285 284 285 287 289 292
289 288 286 287 286 286 286 289 292 293 292 290 291 292 292 292 289 288 288 289 287 287 288 288 288 287 285 283 283 280 278 278 279 278 279 280 280 280 281 282 284 285 287
289 290 287 286 288 288 290 290 292 293 294 295 291 288 288 291 293 292 288 288 288 289 291 292 291 289 288 287 284 279 278 278 279 278 278 280 281 279 280 280 281 283 285
287 288 287 287 287 286 287 288 290 290 292 294 297 295 288 288 293 293 290 290 291 290 290 291 290 290 287 288 287 283 282 281 280 278 279 280 281 279 280 281 281 282 283
284 286 287 287 286 286 286 287 288 289 290 292 292 292 293 292 293 293 290 290 291 291 289 287 287 289 287 286 288 287 286 287 284 281 280 279 279 279 280 281 281 281 283
282 281 283 284 285 285 285 285 286 286 288 289 289 289 288 288 289 290 289 290 291 292 290 289 287 287 287 287 287 287 286 286 286 284 282 279 278 279 279 280 279 279 281
281 280 280 280 282 284 287 286 285 285 286 287 288 289 288 285 285 285 286 288 289 289 289 288 287 286 286 286 287 287 286 286 286 285 285 282 280 279 278 279 278 279 281
280 280 278 277 280 282 286 286 284 285 286 285 286 287 286 283 282 283 283 284 286 286 287 286 286 286 287 286 286 286 287 286 286 286 284 283 281 280 280 279 278 279 281
278 277 276 276 278 281 283 285 285 285 286 286 284 285 286 285 283 283 282 283 284 285 287 287 287 287 286 286 286 285 286 287 286 285 284 282 281 280 280 278 277 278 279
279 279 279 277 278 280 282 284 285 285 284 284 283 285 287 286 283 283 284 283 283 285 286 286 287 288 287 287 286 285 285 286 286 285 282 280 279 279 277 276 276 277 279
279 281 282 282 280 281 282 283 283 283 282 282 282 284 284 284 285 285 285 283 283 284 285 286 287 289 288 288 288 286 286 287 286 285 282 279 279 278 277 276 277 278 278
278 279 281 283 283 283 283 284 284 284 283 282 282 283 283 284 285 285 285 283 283 285 286 286 287 288 289 290 289 288 286 288 286 286 283 280 280 279 278 277 278 277 277
280 281 281 282 283 284 285 286 285 285 284 283 283 283 283 283 284 284 284 283 284 286 286 287 290 290 290 290 290 288 286 289 288 287 284 281 279 279 280 279 278 278 279
279 279 280 281 283 283 284 286 286 286 287 285 284 282 282 282 282 284 284 283 284 284 285 287 289 290 289 290 289 287 285 286 288 287 285 281 280 281 280 279 279 279 279
278 279 279 281 284 285 285 286 287 287 287 287 286 284 282 282 282 283 284 284 284 283 284 286 287 289 288 288 288 287 286 286 287 287 287 285 284 282 280 280 279 278 279
276 277 279 280 282 284 285 286 287 287 288 288 287 286 285 283 283 283 284 284 285 285 285 286 286 287 288 287 286 286 285 285 285 285 287 286 285 283 281 281 280 279 278
277 278 278 278 280 282 284 287 288 288 289 289 288 287 285 284 284 285 284 284 285 285 286 286 287 287 287 287 286 285 284 284 284 285 286 286 283 281 281 280 279 278 279
277 277 277 278 280 282 285 286 287 289 289 288 287 286 285 285 286 286 285 286 287 287 287 287 287 286 285 285 284 284 285 285 285 284 284 285 282 280 280 279 278 279 281
275 277 278 280 281 282 284 286 287 288 288 288 287 285 285 284 284 284 285 286 287 288 287 288 288 287 286 286 285 285 284 284 284 283 282 283 285 283 280 281 281 281 281
273 275 278 281 282 283 284 286 287 287 288 288 287 286 285 285 285 286 286 286 286 286 286 287 287 286 286 286 286 285 283 283 283 283 283 284 285 285 284 282 281 281 281
276 277 278 280 282 283 285 286 287 288 289 289 289 288 287 286 286 287 287 286 286 286 286 286 286 286 286 285 286 285 284 284 282 281 282 284 284 284 283 283 282 282 281
Height
5909 5908 5907 5906 5905 5903 5902 5901 5900 5899 5898 5896 5896 5895 5894 5893 5892 5891 5891 5890 5889 5888 5887 5887 5886 5886 5886 5885 5885 5884 5884 5884 5883 5883 5883 5882 5881 5880 5880 5879 5878 5878 5877
5909 5908 5907 5906 5905 5904 5902 5901 5900 5899 5898 5897 5896 5895 5894 5893 5892 5891 5890 5890 5889 5887 5887 5887 5886 5886 5885 5885 5885 5884 5884 5883 5883 5882 5882 5881 5881 5880 5879 5878 5877 5876 5875
5909 5908 5907 5905 5904 5903 5902 5901 5900 5899 5898 5897 5896 5895 5894 5893 5892 5891 5890 5889 5888 5887 5886 5886 5885 5885 5884 5884 5884 5883 5883 5883 5882 5881 5881 5880 5879 5879 5878 5877 5876 5875 5874
5908 5907 5906 5905 5904 5903 5901 5901 5899 5899 5897 5896 5895 5894 5893 5892 5891 5890 5889 5888 5887 5886 5885 5885 5884 5884 5883 5883 5882 5882 5881 5881 5880 5880 5879 5878 5877 5877 5876 5875 5874 5873 5872
5907 5906 5905 5904 5903 5902 5901 5900 5899 5898 5897 5896 5895 5894 5893 5892 5890 5889 5888 5887 5886 5885 5884 5883 5883 5882 5881 5881 5881 5880 5879 5878 5878 5877 5876 5876 5875 5874 5874 5873 5872 5871 5870
5905 5904 5903 5902 5901 5901 5900 5898 5897 5896 5895 5894 5893 5893 5891 5890 5889 5888 5886 5885 5884 5883 5883 5882 5881 5880 5879 5878 5878 5877 5876 5876 5875 5874 5874 5873 5872 5872 5871 5870 5869 5868 5867
5904 5902 5901 5901 5900 5899 5898 5897 5896 5894 5893 5892 5891 5891 5889 5888 5887 5885 5884 5883 5882 5881 5880 5879 5878 5877 5876 5875 5875 5874 5873 5872 5872 5871 5870 5870 5869 5868 5868 5867 5866 5865 5863
5901 5900 5899 5898 5898 5897 5896 5895 5894 5892 5891 5890 5889 5888 5887 5886 5884 5883 5882 5880 5879 5878 5877 5876 5875 5874 5873 5872 5871 5870 5869 5869 5868 5867 5867 5866 5865 5864 5864 5863 5862 5861 5859
5899 5898 5897 5896 5895 5894 5893 5892 5891 5890 5889 5888 5887 5885 5884 5883 5881 5880 5879 5877 5876 5875 5874 5873 5872 5870 5869 5868 5867 5866 5865 5865 5864 5863 5862 5862 5861 5860 5859 5858 5857 5856 5855
5896 5895 5894 5893 5892 5891 5890 5889 5888 5887 5886 5885 5884 5882 5881 5879 5878 5876 5875 5874 5873 5871 5870 5869 5867 5866 5865 5864 5863 5862 5861 5860 5859 5858 5857 5856 5855 5855 5854 5853 5852 5851 5850
5892 5892 5891 5890 5889 5888 5887 5886 5885 5884 5882 5881 5880 5878 5877 5875 5874 5872 5871 5870 5868 5867 5866 5864 5863 5862 5861 5859 5858 5857 5856 5855 5854 5852 5851 5850 5849 5849 5848 5847 5846 5845 5844
5889 5888 5887 5886 5885 5884 5882 5881 5880 5879 5878 5877 5875 5874 5872 5871 5869 5868 5867 5865 5864 5862 5861 5860 5859 5857 5856 5854 5853 5852 5851 5849 5848 5847 5846 5845 5843 5843 5842 5841 5840 5839 5838
5885 5884 5883 5882 5881 5879 5878 5877 5876 5875 5874 5872 5871 5870 5868 5866 5865 5863 5862 5861 5859 5857 5856 5855 5854 5852 5851 5849 5848 5846 5845 5844 5842 5841 5839 5838 5837 5836 5835 5834 5833 5832 5831
5880 5879 5878 5877 5876 5875 5874 5872 5871 5870 5869 5867 5866 5865 5863 5861 5859 5858 5857 5855 5854 5852 5851 5850 5848 5846 5845 5843 5842 5840 5839 5837 5836 5834 5833 5831 5830 5829 5828 5827 5826 5825 5825
5875 5874 5873 5872 5871 5870 5869 5867 5866 5864 5863 5862 5861 5859 5857 5855 5853 5852 5851 5849 5848 5846 5845 5843 5842 5840 5839 5837 5835 5834 5832 5830 5828 5827 5825 5824 5823 5822 5821 5820 5819 5818 5817
5870 5869 5868 5867 5865 5864 5863 5862 5860 5859 5857 5856 5854 5853 5851 5850 5848 5846 5844 5843 5841 5840 5839 5837 5835 5833 5832 5830 5828 5826 5825 5823 5821 5819 5817 5816 5815 5814 5813 5812 5811 5810 5809
5864 5863 5862 5861 5860 5858 5857 5855 5854 5852 5851 5849 5848 5846 5844 5843 5841 5839 5838 5836 5835 5833 5832 5830 5828 5826 5825 5823 5821 5819 5817 5815 5813 5811 5809 5808 5807 5806 5805 5804 5803 5802 5801
5858 5857 5855 5854 5853 5852 5850 5849 5847 5845 5844 5842 5840 5839 5837 5835 5834 5832 5831 5829 5828 5826 5825 5823 5821 5819 5817 5815 5813 5811 5809 5807 5805 5803 5802 5800 5799 5798 5797 5796 5795 5794 5793
5851 5850 5849 5848 5847 5846 5844 5842 5840 5838 5836 5834 5833 5831 5829 5828 5826 5825 5823 5822 5820 5819 5817 5815 5813 5811 5809 5807 5805 5803 5801 5799 5797 5795 5793 5792 5791 5790 5788 5787 5786 5785 5784
5844 5843 5842 5841 5840 5838 5837 5835 5833 5831 5829 5827 5825 5823 5821 5820 5819 5817 5815 5813 5812 5810 5809 5807 5805 5803 5801 5799 5797 5795 5793 5791 5789 5787 5785 5783 5782 5781 5779 5778 5777 5776 5775
5837 5836 5835 5834 5833 5831 5829 5828 5826 5823 5821 5819 5817 5815 5813 5811 5810 5808 5807 5805 5803 5802 5800 5798 5796 5794 5792 5789 5787 5786 5784 5782 5780 5778 5776 5775 5773 5772 5770 5769 5768 5767 5766
5830 5829 5828 5827 5825 5823 5822 5820 5818 5816 5813 5811 5808 5806 5804 5803 5801 5800 5798 5796 5794 5792 5791 5789 5787 5784 5782 5780 5778 5777 5775 5773 5771 5769 5767 5765 5764 5762 5761 5760 5759 5757 5756
5823 5822 5820 5819 5817 5816 5814 5812 5810 5807 5805 5802 5800 5798 5796 5794 5792 5791 5789 5787 5785 5783 5781 5779 5777 5775 5773 5771 5769 5767 5766 5764 5762 5760 5759 5756 5754 5753 5752 5750 5749 5748 5746
5815 5814 5813 5811 5810 5808 5806 5804 5802 5799 5796 5794 5792 5789 5787 5785 5783 5781 5779 5777 5775 5773 5771 5770 5768 5766 5763 5761 5760 5758 5756 5755 5753 5751 5749 5747 5745 5743 5742 5741 5740 5738 5737
5806 5806 5805 5803 5802 5800 5798 5796 5793 5790 5788 5785 5782 5780 5778 5776 5774 5772 5769 5767 5766 5763 5762 5760 5758 5756 5754 5752 5750 5748 5747 5745 5743 5742 5740 5738 5736 5734 5732 5731 5729 5728 5727
5798 5797 5796 5795 5793 5791 5789 5787 5784 5782 5779 5776 5773 5771 5768 5766 5764 5762 5760 5757 5756 5754 5752 5750 5748 5747 5745 5743 5741 5739 5737 5736 5734 5732 5731 5729 5727 5725 5723 5721 5720 5718 5717